Weather History for KFCM - November, 2011

Change the Weather History Date:

Monday, November 21, 2011

  Actual Average Record
Temperature  
Mean Temperature 28 °F -  
Max Temperature 36 °F 38 °F 61 °F (2001)
Min Temperature 19 °F 25 °F 1 °F (2000)
Degree Days  
Heating Degree Days 38    
Moisture  
Dew Point 26 °F    
Average Humidity 86    
Maximum Humidity 96    
Minimum Humidity 78    
Precipitation  
Precipitation 0.00 in - - ()
Sea Level Pressure  
Sea Level Pressure 30.28 in    
Wind  
Wind Speed 4 mph (SSE)    
Max Wind Speed 9 mph    
Max Gust Speed -    
Visibility 6 miles    
Events      
Averages and records for this station are not official NWS values.
T = Trace of Precipitation, MM = Missing Value Source: NWS Daily Summary

Daily Weather History Graph

Daily Weather History Graph

Search for Another Location

Airport or City:

Trip Planner

Search our weather history database for the weather conditions in past years. The results will help you decide how hot, cold, wet, or windy it might be!

Date:

Astronomy

Nov. 21, 2011 Rise Set
Actual Time 7:18 AM CST 4:40 PM CST
Civil Twilight 6:46 AM CST 5:12 PM CST
Nautical Twilight 6:10 AM CST 5:48 PM CST
Astronomical Twilight 5:35 AM CST 6:23 PM CST
Moon 2:49 AM CST (11/21) 2:10 PM CST (11/21)
Length of Visible Light 10h 25m
Length of Day
9h 21m
Waning Crescent, 17% of the Moon is Illuminated
Nov 21
Waning Crescent
Nov 25
New
Dec 2
First Quarter
Dec 10
Full
Dec 17
Last Quarter

Hourly Weather History & Observations

Time (CST) Temp. Windchill Dew Point Humidity Pressure Visibility Wind Dir Wind Speed Gust Speed Precip Events Conditions
12:53 AM 19.9 °F 14.9 °F 17.1 °F 89% 30.36 in 6.0 mi SSW 3.5 mph - N/A   Overcast
1:53 AM 19.9 °F 12.1 °F 18.0 °F 92% 30.34 in 5.0 mi SSW 5.8 mph - N/A   Overcast
3:53 AM 21.9 °F - 19.0 °F 89% 30.34 in 5.0 mi Calm Calm - N/A   Overcast
4:17 AM 21.2 °F - 19.4 °F 93% 30.29 in 5.0 mi Calm Calm - N/A   Overcast
4:53 AM 21.9 °F 15.7 °F 19.9 °F 92% 30.33 in 5.0 mi SSE 4.6 mph - N/A   Overcast
6:53 AM 24.1 °F 17.0 °F 21.0 °F 88% 30.32 in 6.0 mi SSE 5.8 mph - N/A   Overcast
7:53 AM 24.1 °F - 23.0 °F 96% 30.33 in 5.0 mi Calm Calm - N/A   Overcast
8:53 AM 26.1 °F 19.4 °F 24.1 °F 92% 30.33 in 4.0 mi SSE 5.8 mph - N/A   Overcast
9:53 AM 27.0 °F 21.6 °F 25.0 °F 92% 30.33 in 3.0 mi South 4.6 mph - N/A   Overcast
10:53 AM 28.9 °F 23.9 °F 26.1 °F 89% 30.32 in 4.0 mi South 4.6 mph - N/A   Overcast
11:29 AM 30.2 °F 26.7 °F 26.6 °F 86% 30.26 in 5.0 mi South 3.5 mph - N/A   Overcast
11:53 AM 30.9 °F 26.2 °F 27.0 °F 85% 30.29 in 5.0 mi South 4.6 mph - N/A   Overcast
12:22 PM 32.0 °F - 28.4 °F 87% 30.25 in 6.0 mi Calm Calm - N/A   Overcast
12:53 PM 34.0 °F 29.8 °F 28.0 °F 79% 30.27 in 6.0 mi South 4.6 mph - N/A   Haze
1:53 PM 35.1 °F 32.2 °F 28.9 °F 78% 30.26 in 6.0 mi SE 3.5 mph - N/A   Haze
2:53 PM 36.0 °F 31.1 °F 30.0 °F 79% 30.24 in 8.0 mi SSW 5.8 mph - N/A   Overcast
4:53 PM 35.1 °F 32.2 °F 28.9 °F 78% 30.23 in 7.0 mi NE 3.5 mph - N/A   Overcast
5:53 PM 34.0 °F 29.8 °F 30.0 °F 85% 30.25 in 7.0 mi ESE 4.6 mph - N/A   Overcast
6:53 PM 34.0 °F - 30.0 °F 85% 30.25 in 6.0 mi Calm Calm - N/A   Overcast
7:53 PM 35.1 °F 32.2 °F 30.0 °F 82% 30.23 in 6.0 mi ESE 3.5 mph - N/A   Haze
8:53 PM 36.0 °F 30.3 °F 30.0 °F 79% 30.22 in 8.0 mi ESE 6.9 mph - N/A   Overcast
9:53 PM 35.1 °F 30.1 °F 30.0 °F 82% 30.22 in 8.0 mi East 5.8 mph - N/A   Overcast
10:53 PM 35.1 °F 28.6 °F 30.0 °F 82% 30.22 in 8.0 mi ESE 8.1 mph - N/A   Overcast
11:53 PM 35.1 °F 27.9 °F 30.0 °F 82% 30.22 in 7.0 mi ESE 9.2 mph - N/A   Overcast